Location: Kott?ru
(16.6209°N, 80.6208°E)
Time: 14:41:38
(UTC+00:00)

Cosmos 540 Rocket - Pass Details

Date: 18 September 2020
Orbit: 741 x 753 km, 74.1° (Epoch: 30 October)

Event Time Altitude Azimuth Distance (km) Brightness Sun altitude
Exits shadow 23:26:30 - 210° (SSW) 2,554 5.9 -15.1°
Reaches altitude 10° 23:27:18 10° 213° (SSW) 2,256 5.6 -14.9°
Maximum altitude 23:32:10 45° 285° (WNW) 1,018 3.7 -13.7°
Drops below altitude 10° 23:37:04 10° 357° (N) 2,267 6.0 -12.6°
Sets 23:39:32 0° 4° (N) 3,193 6.8 -12.0°
